Theta_e
329 321 319 313 296 293 289 296 304 305 308 312 314 314 320 327 323 318 351 355 358 358 363 366 365 365 364 364 362 361 361 361 360 361 362 363 362 362 363 363 364 365 363 360 358 357 356 355 354
327 324 317 308 290 285 290 299 300 306 311 315 315 313 314 330 336 335 344 356 357 358 360 364 365 364 364 363 361 361 361 361 360 361 362 363 362 362 363 363 364 364 362 360 357 356 355 355 354
327 324 310 296 290 287 288 297 300 306 308 308 307 316 320 333 337 338 352 356 357 355 359 364 365 364 363 362 361 361 361 360 360 362 362 362 362 361 361 362 363 363 360 359 357 356 355 354 353
315 308 308 292 290 294 297 299 303 305 307 308 312 313 334 345 344 352 355 357 354 353 360 364 364 363 363 362 361 360 361 361 361 362 362 362 362 361 360 360 360 360 359 357 356 355 355 355 354
310 305 293 290 292 298 302 304 303 303 304 305 307 313 331 345 351 355 354 356 351 357 361 363 364 363 363 362 361 361 360 360 361 362 362 361 361 362 361 360 359 359 359 355 355 355 355 354 353
301 301 291 290 294 300 303 304 304 305 306 306 306 309 326 346 350 355 356 353 354 357 359 361 364 363 361 361 361 360 360 360 360 361 361 361 361 361 361 361 361 360 359 357 355 355 354 352 351
294 294 291 293 296 299 302 305 303 305 304 305 307 304 326 338 347 355 355 354 357 357 358 360 360 361 362 360 360 359 359 359 360 360 360 360 361 360 360 360 359 359 358 356 355 353 353 351 350
298 293 291 295 295 295 302 305 304 303 306 313 311 303 321 338 346 352 354 354 354 355 356 357 358 359 358 357 360 359 359 359 359 359 359 359 360 359 359 357 358 358 356 355 353 352 351 350 350
297 291 289 291 294 297 302 301 307 308 305 308 311 309 338 343 346 346 350 350 351 352 353 356 356 356 356 355 357 358 360 360 359 359 359 356 353 354 356 355 357 356 355 354 353 351 350 350 351
291 286 290 297 298 297 300 301 302 303 303 305 308 312 338 339 341 342 346 346 346 345 349 353 354 354 354 355 354 353 354 355 354 355 353 349 348 346 349 353 356 355 355 354 352 352 352 351 344
294 290 295 297 299 301 300 300 303 301 299 303 304 309 316 331 331 339 344 348 346 345 346 349 351 352 353 353 352 352 352 351 350 351 348 344 346 346 346 347 349 346 352 346 349 347 347 344 341
291 296 297 296 298 297 296 299 299 300 301 306 308 312 312 309 327 329 337 347 346 344 344 345 347 347 349 352 350 350 348 346 344 347 345 342 341 343 344 343 342 342 343 342 341 340 340 339 336
295 297 299 299 297 297 299 297 297 298 303 306 307 311 310 309 309 319 332 339 347 342 343 342 343 340 346 345 343 345 342 342 340 344 342 343 344 342 344 342 339 340 340 338 339 336 337 338 341
298 298 298 299 298 298 296 297 297 300 303 303 304 306 309 309 309 311 320 331 346 344 341 342 341 341 342 340 338 339 338 337 339 344 341 343 346 342 340 341 336 337 338 336 338 337 342 340 346
300 294 297 297 297 296 298 294 295 301 303 301 302 304 307 308 309 309 312 317 346 345 345 340 340 343 338 337 337 336 336 340 340 343 340 343 347 343 342 340 336 336 338 340 342 343 343 346 343
295 293 288 295 298 299 296 290 298 301 300 299 301 303 304 306 307 309 313 313 342 346 345 345 350 342 338 340 339 339 337 340 340 343 340 344 347 345 342 339 337 337 338 339 338 342 342 341 337
291 287 289 293 300 298 295 292 298 300 299 299 300 301 303 303 305 307 312 313 346 346 343 342 344 348 345 341 343 343 342 344 342 345 342 346 347 346 341 339 339 335 340 347 345 342 342 336 335
288 289 292 292 298 299 294 294 297 298 299 298 299 301 302 303 304 307 309 314 346 345 343 342 341 346 347 347 348 349 348 346 347 346 344 347 344 347 342 339 341 345 346 344 342 335 335 333 331
295 293 291 295 299 296 294 294 297 298 297 297 297 299 301 302 306 307 308 310 345 343 340 338 339 338 345 346 347 346 345 346 348 347 347 349 346 345 338 348 345 346 344 341 341 336 331 328 328
295 292 292 296 299 297 295 294 298 299 297 298 298 298 299 302 303 306 308 308 343 337 337 337 337 337 343 347 347 347 345 349 348 349 349 349 346 342 348 344 341 341 336 332 331 331 328 329 324
293 293 292 293 297 298 295 293 295 299 300 301 300 301 302 302 303 305 307 307 342 335 332 332 337 342 346 349 349 348 347 345 346 347 346 346 345 349 346 343 340 335 332 330 330 330 329 326 327
290 297 296 295 293 286 296 284 292 295 297 300 300 301 302 302 303 305 306 307 341 342 337 336 334 334 346 349 348 346 343 341 345 345 344 344 346 344 341 338 335 334 332 331 332 330 326 326 322
292 297 295 294 291 289 290 287 290 295 294 297 300 301 301 303 303 303 305 309 319 345 345 344 334 333 342 341 347 345 343 343 344 345 340 339 339 340 339 337 334 331 330 327 325 324 323 319 316
300 296 294 293 290 283 288 289 287 291 294 297 301 302 304 304 304 304 306 309 321 348 346 346 345 343 346 344 346 343 343 343 343 339 338 337 337 336 336 335 334 328 326 324 322 322 321 318 316
296 292 284 282 281 281 290 288 289 295 298 299 300 301 303 304 304 304 304 305 323 344 346 346 346 344 346 345 344 344 345 343 339 337 335 334 333 332 334 332 328 326 324 323 322 320 318 317 315
291 290 284 277 279 283 290 284 287 298 301 302 302 304 304 303 304 304 304 304 310 342 344 346 346 345 344 344 343 343 344 340 337 335 333 332 331 332 331 328 325 322 322 322 321 318 317 317 315
288 285 294 285 286 281 284 288 293 297 299 301 301 304 303 303 302 304 304 305 308 339 342 344 344 342 341 342 342 342 339 336 336 335 332 332 333 328 325 323 321 321 322 320 319 316 315 314 315
292 295 285 287 274 274 281 284 285 292 295 299 300 299 301 303 304 304 305 305 315 338 343 343 342 339 342 341 341 341 336 336 335 332 331 331 328 326 323 321 320 320 319 317 316 315 315 314 314
289 286 290 290 288 280 277 280 292 293 297 297 297 301 299 302 305 305 305 306 323 339 341 340 338 335 340 340 340 336 337 332 331 329 329 327 324 322 321 320 319 318 317 316 315 315 316 314 313
292 290 291 285 282 285 282 282 295 295 298 297 297 301 300 301 306 301 304 306 330 339 339 337 335 334 340 341 337 336 332 332 330 329 326 324 322 321 321 319 318 318 318 316 315 315 316 314 314
Wind_Speed
8 8 3 3 4 2 6 10 8 16 15 10 9 6 11 7 7 7 6 18 21 15 15 16 22 21 22 20 19 20 18 18 18 17 15 15 15 15 16 15 13 14 14 14 12 11 10 10 9
5 6 2 4 4 2 7 10 17 19 22 17 9 3 5 5 4 6 6 21 21 19 13 14 22 22 22 22 20 20 19 18 18 18 14 14 15 14 14 14 13 13 14 13 12 10 9 8 8
6 6 1 5 4 9 7 8 12 14 13 22 8 3 6 10 9 7 18 22 19 17 13 14 21 23 22 21 20 21 19 19 18 18 15 14 14 14 13 13 12 12 13 12 11 9 8 7 7
4 2 4 1 11 11 17 12 17 19 14 14 8 1 8 11 20 18 24 22 19 16 13 18 21 22 24 22 20 21 21 19 18 18 16 14 14 14 13 12 12 12 12 11 9 9 7 6 6
2 3 4 6 12 12 17 15 14 16 9 13 8 5 8 5 21 28 26 21 22 15 13 14 18 22 24 23 21 21 21 20 19 18 17 15 14 13 13 12 12 11 11 11 9 7 6 6 5
4 3 3 9 15 16 14 13 13 17 13 14 11 6 3 17 24 22 22 21 19 17 15 13 17 20 22 23 23 21 21 21 20 19 17 16 14 13 12 11 11 11 10 8 8 7 5 6 5
4 4 7 10 14 17 16 13 9 15 12 14 6 4 5 11 18 22 20 20 18 18 15 12 12 14 21 21 23 22 21 22 20 19 18 16 15 14 12 12 11 10 9 8 7 6 5 6 7
5 3 10 12 12 15 13 16 8 9 18 17 5 4 4 11 18 21 20 20 17 14 16 12 11 13 11 14 21 21 21 21 20 19 18 17 15 14 12 11 10 10 9 9 8 7 7 9 11
6 6 10 10 12 14 15 15 18 17 13 20 16 7 12 12 13 15 21 18 16 13 14 14 12 12 11 12 15 19 21 21 20 18 19 14 7 8 11 10 12 10 9 8 8 8 10 10 9
5 5 7 9 14 14 13 15 14 18 19 19 23 5 13 11 11 13 22 19 18 18 15 15 14 13 13 11 13 12 12 10 10 10 12 8 8 7 9 9 12 11 10 9 10 10 10 7 4
8 11 13 16 17 14 14 17 10 15 15 14 19 22 3 6 7 10 16 24 24 22 16 16 15 14 14 10 7 6 5 6 7 10 9 8 8 6 5 4 4 4 8 4 6 5 4 6 5
5 12 13 11 10 9 9 11 15 12 21 15 20 19 16 9 8 10 10 20 22 22 23 20 16 12 11 8 8 8 7 6 6 8 11 5 3 6 7 5 6 5 5 6 5 3 5 7 7
8 9 10 9 8 8 10 10 9 18 18 14 19 17 13 15 8 8 10 10 20 22 21 21 21 9 11 11 6 9 7 7 7 8 10 6 5 6 6 6 6 6 5 5 5 5 6 7 6
8 12 12 10 10 8 8 8 9 23 16 17 17 16 14 14 10 9 11 8 21 12 13 16 17 16 13 10 8 7 7 7 9 7 8 7 5 6 6 5 6 5 5 6 6 5 5 3 5
16 13 15 11 8 10 8 11 16 21 18 16 17 17 16 16 15 13 8 8 18 17 14 8 6 9 14 10 8 5 6 7 8 8 7 7 6 5 5 5 5 5 5 6 5 3 4 5 5
13 9 9 9 14 20 9 19 21 13 14 16 14 16 16 17 13 15 13 6 11 20 22 17 3 7 11 11 9 7 8 7 7 7 6 7 7 7 4 4 2 3 2 2 4 4 4 5 4
7 12 16 20 19 18 11 22 18 14 11 17 14 12 14 18 20 16 15 8 17 19 27 26 19 3 3 8 6 6 7 6 6 6 6 7 7 6 5 3 3 2 3 5 5 6 6 6 4
11 11 14 15 16 13 8 13 10 9 13 13 11 11 15 15 18 18 16 7 18 22 26 24 15 16 4 6 6 4 6 7 9 8 7 7 6 6 5 1 1 4 6 5 6 9 8 5 3
15 17 20 18 15 14 15 14 15 11 6 9 10 12 13 16 15 18 15 10 17 19 20 21 21 18 16 9 10 5 9 8 9 10 9 8 7 7 5 5 4 6 8 6 5 5 7 6 3
20 21 23 20 18 18 17 20 13 13 8 12 9 8 11 13 14 15 17 13 20 20 21 20 23 22 22 19 12 5 10 4 6 9 10 8 7 7 7 8 6 8 8 9 8 5 3 3 5
18 17 16 20 18 17 14 27 17 12 13 12 10 10 13 19 14 13 21 21 17 22 22 21 24 20 17 17 8 6 4 2 5 9 7 4 8 10 12 10 9 9 7 6 5 5 6 3 3
21 14 17 17 10 14 7 21 18 5 12 12 12 14 16 16 15 14 15 21 14 25 23 23 24 23 16 15 11 14 11 8 7 9 6 7 12 13 12 11 10 8 5 6 5 4 4 3 3
25 18 17 20 10 14 10 9 21 6 16 16 20 14 13 19 15 15 14 18 16 24 26 25 25 23 23 18 17 15 13 8 8 9 12 12 10 13 12 10 9 7 5 5 6 4 4 4 4
17 14 14 12 7 14 8 14 23 14 20 18 17 18 19 22 19 15 14 9 14 21 22 23 29 30 28 28 31 17 16 16 13 12 11 9 8 9 10 9 8 6 6 6 5 7 8 6 6
13 4 4 5 8 13 9 13 19 5 13 20 21 19 17 23 21 17 16 11 9 22 21 21 21 21 23 23 17 12 17 17 18 14 11 12 9 8 8 10 8 6 7 6 6 8 8 6 5
15 8 4 7 4 3 4 10 7 10 18 16 15 15 19 16 17 17 17 11 9 18 20 22 21 20 18 19 15 12 17 11 11 13 11 9 10 9 9 10 8 7 7 6 7 5 5 6 5
2 6 7 5 8 4 7 11 13 22 21 13 10 7 11 12 11 16 17 14 8 18 19 22 21 16 15 15 15 14 13 15 13 14 13 10 12 10 11 10 8 6 7 7 8 5 5 5 5
13 5 3 4 4 7 5 7 5 10 11 7 6 6 6 10 13 15 18 18 7 16 17 19 20 20 20 19 16 15 17 15 11 13 16 15 14 14 11 9 9 8 7 7 7 5 6 7 4
2 2 3 4 5 4 5 6 7 6 3 10 10 9 9 5 13 18 21 22 10 16 16 16 21 23 18 16 16 20 17 19 16 14 14 14 15 13 12 10 10 8 7 7 6 6 7 8 6
18 9 13 5 5 4 6 15 8 9 9 8 11 8 9 6 11 8 17 22 13 16 18 17 20 23 19 18 19 18 19 21 17 14 15 16 14 12 12 11 9 7 6 6 5 6 7 8 7
Wind_Direction
308 282 244 312 44 104 250 248 245 274 283 251 275 79 118 122 148 192 206 126 133 135 141 145 138 133 132 130 129 126 124 120 118 113 114 108 105 105 106 106 108 109 104 100 99 99 95 87 82
314 314 240 279 133 221 259 239 252 254 255 281 304 58 35 78 84 111 140 132 140 135 142 150 141 137 135 134 133 129 128 125 123 119 119 111 111 111 109 110 112 111 109 107 105 104 102 97 89
265 216 63 162 205 214 235 244 253 269 309 315 298 82 90 123 115 117 124 132 133 132 140 152 143 140 137 134 138 133 130 129 126 124 125 117 115 114 111 112 115 117 117 115 116 114 111 105 95
312 330 301 227 249 250 240 265 272 284 300 289 314 114 68 132 144 138 134 131 128 134 139 146 147 143 138 138 142 136 134 132 131 130 129 125 121 117 119 121 121 122 123 123 124 124 125 117 107
271 274 229 233 246 261 272 268 272 282 286 304 337 279 87 109 122 132 135 136 138 128 139 140 153 144 141 144 143 141 137 136 135 135 134 131 126 124 128 131 128 128 127 132 134 138 140 126 126
309 153 271 238 254 261 266 268 280 280 281 292 323 345 81 137 135 136 135 136 137 130 137 145 151 147 145 147 144 144 139 137 138 139 139 136 133 132 132 133 131 131 133 141 143 154 152 145 157
198 311 246 255 270 280 278 283 266 274 288 280 261 336 166 124 134 134 139 137 127 132 135 141 146 151 148 151 145 145 144 141 143 144 141 140 142 140 141 141 140 140 145 155 159 167 167 178 196
188 247 265 264 271 273 274 296 300 318 307 304 222 258 114 146 145 140 139 125 131 133 136 140 145 148 151 150 145 145 145 143 146 145 141 144 147 145 146 147 148 151 164 170 174 180 184 210 222
285 257 256 265 274 288 295 304 316 338 340 331 291 119 134 129 132 138 126 131 132 138 142 143 151 152 151 151 148 144 147 145 147 146 145 144 149 153 160 164 160 166 177 181 185 194 208 221 245
191 269 266 254 276 283 287 308 327 331 335 324 337 51 129 132 152 153 146 150 149 147 157 152 160 161 152 155 149 143 150 150 152 150 153 157 164 173 174 170 164 173 182 190 201 207 218 228 249
232 237 248 264 275 284 293 301 316 321 304 315 318 321 141 146 170 171 171 159 159 158 157 162 162 163 154 148 151 141 142 155 151 154 160 181 175 176 150 154 162 175 190 202 209 215 220 221 218
270 244 241 243 262 290 296 302 298 296 285 306 305 317 332 322 183 201 186 154 160 163 165 160 156 161 154 151 154 150 153 164 162 168 176 183 168 167 160 167 172 184 194 204 199 197 213 235 229
325 309 320 313 311 298 295 298 293 291 297 297 299 310 323 326 346 322 205 165 158 166 162 161 147 151 140 152 162 151 159 165 169 175 181 177 189 179 172 177 175 198 188 202 205 200 216 227 231
299 306 302 299 300 298 304 300 323 291 298 304 301 298 309 309 325 323 310 150 154 174 152 147 162 140 147 155 151 158 159 166 164 175 185 175 188 187 166 179 194 202 209 198 220 193 213 131 110
318 312 303 303 283 267 255 270 252 264 282 281 290 299 296 298 311 310 286 329 150 117 116 136 169 145 141 149 155 154 178 169 161 175 171 175 189 181 165 169 184 187 185 188 166 125 92 92 68
291 285 280 266 258 258 211 252 247 250 268 274 273 283 289 290 293 302 294 299 136 132 120 100 309 143 153 159 166 172 184 173 171 168 166 183 174 170 184 169 204 223 300 169 77 102 91 86 80
270 260 259 266 252 242 221 243 248 234 234 258 260 258 263 277 283 285 293 274 123 138 139 158 167 146 325 145 173 175 186 171 176 171 170 180 164 172 178 163 233 188 62 69 79 56 73 65 48
258 274 285 290 303 309 261 290 286 250 218 238 257 262 260 261 264 272 275 291 133 147 157 160 159 126 68 301 172 181 193 172 164 173 177 169 158 173 162 119 180 110 89 74 85 87 61 63 32
276 287 282 283 286 296 295 261 257 266 249 265 250 253 265 251 257 259 262 270 135 153 151 163 147 148 138 250 200 186 189 189 165 170 170 170 156 168 122 91 74 83 80 71 79 110 97 45 340
242 250 265 272 280 279 285 277 268 260 241 241 224 277 272 272 252 254 257 254 149 159 162 155 162 174 165 197 201 180 188 195 154 162 165 157 142 140 106 94 77 76 80 63 57 69 85 84 21
285 266 252 266 272 264 311 285 276 264 259 250 226 224 252 258 262 253 237 248 153 160 162 162 163 178 184 194 185 178 185 118 129 149 145 132 128 107 107 95 87 83 86 89 87 93 89 102 39
282 289 301 306 309 271 212 276 259 257 276 265 260 232 239 249 247 254 247 226 174 163 173 171 174 173 189 196 192 189 195 170 148 137 105 94 101 98 96 98 94 101 112 104 90 81 98 103 82
281 286 284 287 260 285 255 259 271 221 252 251 254 245 247 253 242 243 257 228 191 170 170 172 181 165 187 186 212 189 187 136 125 111 107 99 93 101 101 103 101 96 98 98 106 92 78 81 100
311 328 318 314 272 258 220 228 264 234 245 255 256 240 235 244 248 238 243 241 175 170 170 167 173 181 188 188 201 184 157 144 130 128 119 114 106 104 106 100 97 102 102 97 103 92 80 72 68
49 21 282 246 216 256 196 225 241 276 242 245 248 254 244 230 236 234 234 237 185 165 170 175 176 179 179 180 167 158 137 135 132 131 124 123 114 110 110 100 103 104 107 110 100 85 75 70 75
283 161 272 294 244 295 274 251 247 230 254 252 270 255 244 250 229 223 230 218 170 175 166 170 179 176 175 171 133 147 126 127 125 125 124 118 113 113 103 104 100 102 107 91 85 83 87 88 79
230 194 162 251 233 252 223 273 281 264 254 259 259 346 268 239 246 228 231 222 183 181 181 168 176 170 162 150 143 125 112 116 128 124 112 112 115 115 111 106 109 108 97 97 94 94 94 93 80
238 155 271 203 240 243 230 275 261 12 359 322 304 273 316 277 242 259 224 232 179 185 175 162 153 158 151 146 144 122 123 116 118 117 124 125 120 119 114 117 114 98 93 98 101 102 105 99 95
289 349 180 241 230 271 300 250 191 128 329 312 276 270 280 305 298 240 218 229 171 185 173 161 151 154 149 148 134 131 129 122 123 118 123 126 114 120 121 123 103 100 103 120 127 137 119 105 98
250 228 207 236 234 232 260 256 295 297 213 227 278 279 282 277 298 230 204 223 169 180 174 156 153 156 157 143 138 135 128 117 118 123 126 120 131 126 123 113 109 115 114 122 124 99 109 109 94